"Pseudo-MPEC" for ZLB29FA

Created 2018 Jun 17 17:18:53 UT using Find_Orb

Click here for an explanation of pseudo-MPECs

 
 Astrometry: 
     ZLB29FA  C2018 06 12.38426 21 53 40.48 +06 42 13.5          21.0 GUNEOCPG96
     ZLB29FA  C2018 06 12.38949 21 53 40.93 +06 42 24.6          20.6 GUNEOCPG96
     ZLB29FA  C2018 06 12.39473 21 53 41.36 +06 42 35.0          21.4 GUNEOCPG96
     ZLB29FA  C2018 06 12.39998 21 53 41.77 +06 42 44.5          20.8 GUNEOCPG96
     ZLB29FA  C2018 06 12.43390 21 53 44.65 +06 43 50.4          20.9 GUNEOCPI52
     ZLB29FA  C2018 06 12.43791 21 53 44.99 +06 43 58.7          21.2 GUNEOCPI52
     ZLB29FA  C2018 06 12.43956 21 53 45.07 +06 44 01.0          20.9 GUNEOCPI52
     ZLB29FA  C2018 06 12.44122 21 53 45.26 +06 44 04.2          21.2 GUNEOCPI52
     ZLB29FA  C2018 06 13.42674 21 55 14.47 +07 15 12.8          21.4 GUNEOCPG96
     ZLB29FA  C2018 06 13.43316 21 55 14.96 +07 15 24.3          22.1 GUNEOCPG96
     ZLB29FA  C2018 06 13.43983 21 55 15.50 +07 15 37.8          21.3 GUNEOCPG96
     ZLB29FA  C2018 06 14.43191 21 56 40.54 +07 45 59.1                UNEOCPG96
     ZLB29FA  C2018 06 14.43753 21 56 41.02 +07 46 09.3          21.0 GUNEOCPG96
     ZLB29FA  C2018 06 14.45804 21 56 42.51 +07 46 46.1          21.5 GUNEOCPG96
     ZLB29FA KC2018 06 16OCAstrometryvSvf)redacted;\+R,=rXbYe'V+(mVB5M2RD4WMXH21
     ZLB29FA KC2018 06 16-.scj$;Pvg.^!s?W%HJ5D9cVkak5#/o1see(YUat,7b:uchNEOCPH21

Station data:
(G96) Mt. Lemmon Survey  (N32.442754 W110.788720)  US/Arizona.  Observers B.
   M. Africano, E. J. Christensen, D. C. Fuls, A. R. Gibbs, A. D. Grauer, J.
   A. Johnson, R. A. Kowalski, S. M. Larson, G. J. Leonard, R. L. Seaman, F.
   C. Shelly. 1.5-m reflector + 10K CCD.
(H21) Astronomical Research Observatory, Westfield  (N39.483057 W87.968270)
   US/Illinois. 0.76-m f/3.0 astrograph + CCD.
(I52) Steward Observatory, Mt. Lemmon Station  (N32.442547 W110.788920)
   US/Arizona.  Observers B. M. Africano, E. J. Christensen, D. C. Fuls, A.
   R. Gibbs, A. D. Grauer, J. A. Johnson, R. A. Kowalski, S. M. Larson, G. J.
   Leonard, R. L. Seaman, F. C. Shelly. 1.0-m reflector + CCD.

Orbital elements:  ZLB29FA
   Perihelion 2018 May 20.203010 +/- 0.0352 TT =  4:52:20 (JD 2458258.703010)
Epoch 2018 Jun 16.0 TT = JDT 2458285.5   Earth MOID: 0.0932   AutoNEOCP
M   7.31841 +/- 0.9                 (J2000 ecliptic)
n   0.27310586 +/- 0.0383           Peri.   10.40016 +/- 0.051
a   2.35278383 +/- 0.22             Node   240.69290 +/- 0.59
e   0.5307092 +/- 0.0412            Incl.    8.31304 +/- 0.39
P   3.61                   H 21.8   G  0.15   U 10.5  
q 1.10413968 +/- 0.00695    Q 3.60142798 +/- 0.474
From 16 observations 2018 June 12-16; mean residual 0".38
Residuals in arcseconds: 
180612 G96  .12+  .69-    180612 I52  .53-  .28-    180614 G96  .59+  .06+    
180612 G96  .22+  .26+    180612 I52  .25+  .29-    180614 G96  .41+  .31-    
180612 G96  .02+  .50+    180613 G96  .21-  .07+    180616 H21  .58+  .16-    
180612 G96  .47-  .18-    180613 G96  .41-  .47-    180616 H21  .68-  .20+    
180612 I52  .20+  .06+    180613 G96  .13-  .54+    
180612 I52  .31+  .61+    180614 G96  .40-  .06+    

Ephemerides (geocentric):
Date (UTC) HH   RA              Dec         delta   r     elong  mag " sig PA
---- -- -- --  -------------   -----------  ------ ------ -----  --- ---- ---
2018 06 17 17  22 00 48.534   +09 19 41.08  .30855 1.1546 109.1 21.6  1.2 155
2018 06 17 18  22 00 51.386   +09 20 48.48  .30866 1.1547 109.2 21.6  1.2 155
2018 06 17 19  22 00 54.230   +09 21 55.78  .30876 1.1549 109.2 21.6  1.2 155
2018 06 17 20  22 00 57.067   +09 23 02.99  .30887 1.1550 109.2 21.6  1.3 155
2018 06 17 21  22 00 59.896   +09 24 10.09  .30898 1.1551 109.2 21.6  1.3 155
2018 06 17 22  22 01 02.717   +09 25 17.10  .30909 1.1553 109.2 21.6  1.3 155
2018 06 17 23  22 01 05.531   +09 26 24.01  .30919 1.1554 109.3 21.6  1.3 155
2018 06 18 00  22 01 08.337   +09 27 30.83  .30930 1.1556 109.3 21.6  1.3 155
2018 06 18 01  22 01 11.136   +09 28 37.55  .30941 1.1557 109.3 21.6  1.3 155
2018 06 18 02  22 01 13.927   +09 29 44.16  .30951 1.1559 109.3 21.6  1.3 155
2018 06 18 03  22 01 16.711   +09 30 50.69  .30962 1.1560 109.3 21.6  1.3 155
2018 06 18 04  22 01 19.487   +09 31 57.11  .30973 1.1561 109.3 21.6  1.3 155
2018 06 18 05  22 01 22.255   +09 33 03.44  .30984 1.1563 109.4 21.6  1.3 155
2018 06 18 06  22 01 25.016   +09 34 09.67  .30994 1.1564 109.4 21.6  1.3 155
2018 06 18 07  22 01 27.769   +09 35 15.81  .31005 1.1566 109.4 21.6  1.3 155
2018 06 18 08  22 01 30.515   +09 36 21.85  .31016 1.1567 109.4 21.6  1.3 154
2018 06 18 09  22 01 33.253   +09 37 27.79  .31026 1.1569 109.4 21.6  1.3 154
2018 06 18 10  22 01 35.984   +09 38 33.63  .31037 1.1570 109.5 21.6  1.4 154
2018 06 18 11  22 01 38.707   +09 39 39.38  .31048 1.1572 109.5 21.6  1.4 154
2018 06 18 12  22 01 41.423   +09 40 45.03  .31059 1.1573 109.5 21.6  1.4 154
2018 06 18 13  22 01 44.131   +09 41 50.59  .31069 1.1574 109.5 21.6  1.4 154
2018 06 18 14  22 01 46.831   +09 42 56.04  .31080 1.1576 109.5 21.6  1.4 154
2018 06 18 15  22 01 49.524   +09 44 01.41  .31091 1.1577 109.5 21.6  1.4 154
2018 06 18 16  22 01 52.210   +09 45 06.67  .31102 1.1579 109.6 21.6  1.4 154
2018 06 18 17  22 01 54.888   +09 46 11.84  .31112 1.1580 109.6 21.6  1.4 154
2018 06 18 18  22 01 57.559   +09 47 16.91  .31123 1.1582 109.6 21.6  1.4 153
2018 06 18 19  22 02 00.222   +09 48 21.89  .31134 1.1583 109.6 21.6  1.4 153
2018 06 18 20  22 02 02.878   +09 49 26.77  .31144 1.1585 109.6 21.6  1.4 153
2018 06 18 21  22 02 05.526   +09 50 31.55  .31155 1.1586 109.7 21.6  1.4 153
2018 06 18 22  22 02 08.167   +09 51 36.24  .31166 1.1588 109.7 21.6  1.5 153
2018 06 18 23  22 02 10.800   +09 52 40.83  .31177 1.1589 109.7 21.6  1.5 153
2018 06 19 00  22 02 13.426   +09 53 45.33  .31187 1.1591 109.7 21.6  1.5 153
2018 06 19 01  22 02 16.044   +09 54 49.73  .31198 1.1592 109.7 21.6  1.5 153
2018 06 19 02  22 02 18.655   +09 55 54.03  .31209 1.1594 109.7 21.6  1.5 152
2018 06 19 03  22 02 21.258   +09 56 58.24  .31219 1.1595 109.8 21.6  1.5 152
2018 06 19 04  22 02 23.854   +09 58 02.35  .31230 1.1597 109.8 21.6  1.5 152
2018 06 19 05  22 02 26.443   +09 59 06.37  .31241 1.1598 109.8 21.6  1.5 152
2018 06 19 06  22 02 29.024   +10 00 10.29  .31252 1.1599 109.8 21.6  1.5 152
2018 06 19 07  22 02 31.598   +10 01 14.12  .31262 1.1601 109.8 21.6  1.5 152
2018 06 19 08  22 02 34.164   +10 02 17.85  .31273 1.1602 109.9 21.6  1.5 152
2018 06 19 09  22 02 36.723   +10 03 21.48  .31284 1.1604 109.9 21.6  1.6 152
2018 06 19 10  22 02 39.275   +10 04 25.02  .31295 1.1605 109.9 21.6  1.6 151
2018 06 19 11  22 02 41.819   +10 05 28.46  .31305 1.1607 109.9 21.6  1.6 151
2018 06 19 12  22 02 44.356   +10 06 31.81  .31316 1.1608 109.9 21.6  1.6 151
2018 06 19 13  22 02 46.885   +10 07 35.06  .31327 1.1610 110.0 21.6  1.6 151
2018 06 19 14  22 02 49.407   +10 08 38.22  .31337 1.1611 110.0 21.6  1.6 151
2018 06 19 15  22 02 51.922   +10 09 41.28  .31348 1.1613 110.0 21.6  1.6 151
2018 06 19 16  22 02 54.429   +10 10 44.25  .31359 1.1614 110.0 21.6  1.6 151